TITAN 3C TRANSTAGE DEB, 38692

Orbit data source: Space-Track

TITAN 3C TRANSTAGE DEB, 38692 is space debris in GEO originally from a launch on Thu, 26 Sep 1968 UTC launched from the Air Force Eastern Test Range (AFETR). Debris objects in space refer to the collection of defunct objects orbiting the Earth. Examples of debris include non-operational satellites, rocket bodies, and fragments generated from explosions, collisions, or faulty payload assembly.

Loading next visibility...
Identifier
38692, 1968-081S
Orbit
GEO
Country
Flag of USUS
Related business
Manufacturer
Unknown
Mission
Spacecraft
Bus & Motor
Unknown
Mass
Unknown
Launch date (UTC)
1968-09-26 (58 years ago)
Launch vehicle
Unknown
Launch site
Air Force Eastern Test Range (AFETR)
Object type
Payload
Rocket body
Debris
Shape & HBR
Unknown shape, 1.1 m
Radar Cross Section
Medium (>0.1 m² and <1 m²)

Expand to show TLE details & history
Last TLE update: 1 month ago

TLE from 1 month ago
0 TITAN 3C TRANSTAGE DEB
1 38692U 68081S   26220.19517185 -.00000210  00000-0  00000-0 0  9994
2 38692   1.9964  22.7089 0298766 293.1016  64.1942  0.99219130 41901
Epoch: 2026-08-08T04:41Z
TLE epoch observation values (Epoch: 2026-08-08T04:41:02.847Z)
Latitude
0.00001°
Longitude
-3.81546°
Altitude
35,562.043 km
Speed
3.102 km/s
True Right ascension
01h 32m 37s
True Declination
0° 00' 00"
Sunlit
Object was in daylight at epoch
Visualization orbit readout
Latitude
Unknown
Longitude
Unknown
Altitude
Unknown
Speed
Unknown
Apparent Right ascension
Unknown
Apparent Declination
Unknown
Sunlit
N/A
Visualization observer readout
Local Sidereal Time
04:10:30
Azimuth
Unknown
Elevation
Unknown
Doppler factor
Unknown
Orbital elements
Apogee altitude
37,354.026 km
Perigee altitude
34,816.696 km
Semi-major axis
42,463.498 km
Eccentricity
0.02988
Inclination
1.9964°
RAAN
22.7089°
Arg. of periapsis
293.1016°
True anomaly
67.32573°
Mean anomaly
64.1942°
Eccentric anomaly
65.75502°
Mean motion
0.24804 °/min
Orbital period
1,451.39 mins
BSTAR
0
Loading maneuver chart data...
Computing Atmospheric mass density...

Documentation

Showing up to 5 results
|